Hourly Weather Roundup
Issued by NWS Central Illinois

Home | Current Version | Previous Version | Text Only | Print | Product List | Glossary On
Versions: 1 2 3 4 5 6 7 8 9 10 11 12 13 14 15 16 17 18 19 20 21 22 23 24 25 26 27 28 29 30 31 32 33 34 35 36 37 38 39 40 41 42 43 44 45 46 47 48 49 50
000
NZUS43 KILX 281210
HWRILX

AREA WEATHER ROUNDUP
NATIONAL WEATHER SERVICE, LINCOLN IL
600 AM CST WED JAN 28 2015


CITY           SKY/WX    TMP DP  RH WIND       PRES   REMARKS
BLOOMINGTON    CLEAR     22  19  88 S8        30.27R WCI  13
6HR MIN TEMP:  21; 6HR MAX TEMP:  29;

CHAMPAIGN      CLEAR     21  17  84 SE7       30.28R WCI  12
6HR MIN TEMP:  18; 6HR MAX TEMP:  23;

DECATUR        CLEAR     23  17  78 SE6       30.28R WCI  16
6HR MIN TEMP:  22; 6HR MAX TEMP:  25;

FLORA          CLEAR     24  22  91 SE5       30.30S WCI  19
6HR MIN TEMP:  24; 6HR MAX TEMP:  27;

GALESBURG      PTCLDY    25  23  89 SE8       30.19F WCI  17
JACKSONVILLE   CLEAR     29  25  84 SE9       30.23R WCI  20
6HR MIN TEMP:  27; 6HR MAX TEMP:  30;

LACON          PTCLDY    24  20  85 SE6       30.26S WCI  17
6HR MIN TEMP:  24; 6HR MAX TEMP:  29;

LAWRENCEVILLE  CLEAR     24  19  81 E8        30.31S WCI  15
6HR MIN TEMP:  23; 6HR MAX TEMP:  28;

LITCHFIELD     CLEAR     26  22  86 SE13      30.23F WCI  14
$$


CITY           SKY/WX    TMP DP  RH WIND       PRES   REMARKS
LINCOLN        PTCLDY    24  21  89 SE3       30.28R
6HR MIN TEMP:  24; 6HR MAX TEMP:  29;

MACOMB         CLEAR     26  24  91 SE9       30.22S WCI  17
MATTOON        CLEAR     22  15  75 SE8       30.26S WCI  12
6HR MIN TEMP:  20; 6HR MAX TEMP:  22;

MT CARMEL AP   CLEAR     28  23  80 E6        30.31R WCI  22
OLNEY-NOBLE AP CLEAR     25  21  86 CALM      30.30R
PARIS          CLEAR     21  18  89 N3        30.30R
6HR MIN TEMP:  18; 6HR MAX TEMP:  21;

PEORIA         PTCLDY    26  22  84 SE6       30.25S FOG     WCI  19
6HR MIN TEMP:  26; 6HR MAX TEMP:  31;

PONTIAC        PTCLDY    23  20  89 SE5       30.29R WCI  16
RANTOUL        CLEAR     24  19  81 SE8       30.28R WCI  14
6HR MIN TEMP:  21; 6HR MAX TEMP:  24;

ROBINSON       CLEAR     22  19  89 SE5       30.32S WCI  16
6HR MIN TEMP:  20; 6HR MAX TEMP:  24;

SPRINGFIELD    CLEAR     27  21  78 SE10      30.25S WCI  17
6HR MIN TEMP:  24; 6HR MAX TEMP:  27;

TAYLORVILLE    CLEAR     25  21  86 SE8       30.27R WCI  16
$$

...REGIONAL REPORTS...


CITY           SKY/WX    TMP DP  RH WIND       PRES   REMARKS
CHICAGO O`HARE PTCLDY    20  16  84 S5        30.27R WCI  13
KANKAKEE       CLEAR     20  17  87 SE3       30.29R
MOLINE         PTCLDY    28  22  78 SE7       30.20S WCI  21
MOUNT VERNON   CLEAR     21  14  73 CALM      30.29S
PITTSFIELD     CLEAR     29  26  91 SE10      30.21S FOG     WCI  19
QUINCY         CLEAR     27  24  89 SE12      30.17S FOG     WCI  17
ROCKFORD       CLOUDY    22  18  85 S5        30.27R WCI  16
$$


CITY           SKY/WX    TMP DP  RH WIND       PRES   REMARKS
BURLINGTON     PTCLDY    28  25  88 S10       30.19R WCI  19
CEDAR RAPIDS   CLOUDY    27  27 100 SE12      30.13F FOG     WCI  17
DES MOINES     CLOUDY    31  27  85 SE12G21   30.03F FOG     WCI  22
KIRKSVILLE     PTCLDY    28  27  96 E10       30.09F FOG     WCI  19
OTTUMWA        PTCLDY    28  26  92 SE13      30.10F WCI  17
ST LOUIS       PTCLDY    31  26  82 SE12      30.23S WCI  22
$$


CITY           SKY/WX    TMP DP  RH WIND       PRES   REMARKS
TERRE HAUTE    CLEAR     20  14  77 SE6       30.31R WCI  12
EVANSVILLE     CLEAR     30  23  75 E9        30.31R WCI  22
INDIANAPOLIS   CLEAR     16  13  88 SE5       30.31R WCI   9
LAFAYETTE      PTCLDY    16  13  88 E6        30.31R WCI   7
MADISON        PTCLDY    22  17  81 S9        30.21F WCI  12
MILWAUKEE      PTCLDY    23  16  74 SW3       30.26R
$$





USA.gov is the U.S. government's official web portal to all federal, state and local government web resources and services.